Wind_Speed
75 75 74 73 73 72 71 72 75 77 79 79 78 78 81 85 87 88 89 90 91 93 95 96 97 99 100 101 101 102 102 103 104 105 105 106 107 109 111 112 112 113 115 116 118 120 122 124 125 126 127 128 129 130 131 132 133 134 136 137 138 138 139 139 138 138 139 141 143 144 144 144 145 146 146 145 145 144 145 144 143 143 142 140 136
76 75 75 75 75 76 76 77 79 81 82 82 82 83 86 89 90 90 91 93 95 96 97 99 100 101 102 103 103 104 104 105 106 107 107 108 110 112 113 114 115 116 118 119 121 123 125 127 128 129 130 131 132 132 133 135 136 137 138 139 140 141 142 142 142 141 141 143 144 145 146 146 147 148 149 148 146 146 145 143 142 141 139 137 134
80 79 79 79 81 82 83 82 82 83 83 83 84 86 89 91 92 93 94 96 97 98 99 100 101 102 104 105 105 106 106 107 108 108 109 111 113 115 115 116 117 119 121 122 124 126 128 130 131 132 133 133 134 135 136 137 138 140 141 142 142 143 144 144 145 145 145 145 145 146 147 148 149 150 151 150 149 148 146 144 142 139 137 135 133
83 83 84 85 85 85 84 84 83 84 85 86 88 90 92 93 94 96 97 98 99 100 101 102 104 105 106 107 107 107 108 108 109 110 112 114 116 116 117 118 120 122 123 125 126 128 130 132 133 134 135 135 136 137 138 139 141 142 143 143 144 145 146 147 148 148 148 147 147 147 148 150 150 151 152 152 150 148 146 143 140 138 136 134 131
87 88 88 87 85 85 85 85 86 87 88 90 91 93 94 95 97 98 99 100 101 102 103 105 106 107 108 108 108 108 109 110 111 113 115 117 117 118 119 120 122 124 125 127 129 131 132 134 135 136 136 137 138 139 140 141 143 144 144 145 145 146 147 149 149 150 150 149 149 149 150 151 152 153 153 152 150 147 144 141 137 135 133 130 126
91 90 89 87 85 85 86 87 88 90 91 92 93 95 96 97 98 99 100 102 103 104 106 107 108 109 109 109 109 109 110 112 114 116 117 118 119 120 121 123 124 126 127 129 131 133 134 135 136 137 138 139 140 141 142 143 144 145 145 146 147 148 149 150 151 151 152 151 151 151 152 153 153 153 153 152 150 147 144 139 135 133 129 124 121
92 91 89 87 86 87 88 89 90 91 93 94 95 96 97 98 100 101 102 104 105 107 108 109 110 109 109 109 110 111 113 115 117 118 119 120 121 122 123 125 126 128 129 131 133 134 136 137 137 138 139 140 141 142 143 144 145 146 146 147 148 149 150 151 151 152 152 153 153 153 154 155 154 153 151 150 148 146 143 139 134 129 124 120 119
92 91 89 88 88 89 89 90 92 93 94 96 97 98 99 100 102 103 104 106 107 108 109 110 109 109 109 111 113 115 117 118 119 120 121 122 123 124 126 127 128 130 131 133 135 136 137 138 139 139 140 141 142 143 144 145 145 146 147 148 149 150 150 151 151 152 153 153 154 155 155 155 155 153 150 148 145 143 140 136 131 126 123 120 121
90 90 90 90 91 91 92 92 94 95 96 97 99 100 101 103 104 105 107 108 109 109 109 109 110 111 112 114 116 118 119 120 121 122 122 124 125 126 128 129 131 132 134 135 136 137 139 140 140 141 142 142 143 144 144 145 146 147 148 149 150 150 150 151 152 153 153 154 156 156 156 155 154 152 149 146 143 140 137 132 128 125 123 121 121
90 91 92 92 93 93 94 95 96 97 98 100 101 102 104 105 106 107 108 109 109 110 110 111 112 114 116 117 119 120 121 122 122 123 124 126 127 129 130 131 133 134 136 137 138 139 140 141 142 142 143 143 144 144 145 146 147 148 149 150 150 150 150 152 153 154 155 156 157 157 156 154 153 151 148 144 141 137 133 130 127 125 124 122 121
93 93 94 94 95 96 96 97 99 100 101 102 103 104 106 107 108 108 109 110 111 112 113 114 116 117 119 120 121 122 122 123 124 125 127 128 130 131 132 134 135 137 138 139 140 141 142 142 143 143 143 144 144 145 146 147 148 149 150 150 150 151 152 153 154 155 156 157 157 157 156 154 152 150 146 142 138 134 130 128 127 126 125 124 122
96 96 97 97 98 98 99 100 101 102 103 104 105 106 107 108 109 110 111 112 114 115 116 118 119 120 121 122 122 123 124 125 126 128 129 131 132 133 135 136 138 139 140 141 142 142 143 143 143 144 144 145 145 146 147 148 149 149 150 150 151 152 154 155 156 157 157 156 156 157 156 154 151 147 144 140 135 131 128 127 127 126 127 127 125
98 99 99 100 100 101 101 102 103 104 106 107 108 108 109 110 111 112 114 115 116 118 119 120 121 122 123 123 124 125 126 127 129 130 131 133 134 135 137 138 140 141 142 143 143 143 143 143 143 144 145 146 146 147 148 148 149 149 150 151 152 154 155 157 157 157 157 157 157 156 155 152 148 145 141 137 133 130 128 127 126 126 127 127 126
101 101 102 102 102 103 104 105 106 107 108 109 110 110 111 112 114 115 116 118 119 120 121 122 123 124 124 125 126 127 129 130 131 132 133 134 136 137 139 140 142 143 144 144 144 143 143 143 144 145 146 146 147 147 148 148 149 149 150 151 153 155 156 156 156 156 157 157 156 154 152 149 146 142 138 135 132 130 129 129 128 127 127 126 126
104 104 104 105 105 106 107 108 109 110 111 112 112 113 114 115 117 118 119 120 121 122 123 124 124 125 126 127 128 130 131 132 133 134 135 136 137 139 141 142 144 145 145 145 144 143 143 144 145 145 146 146 146 147 147 148 149 149 151 153 154 155 155 155 155 156 156 156 154 151 148 146 143 139 136 133 132 131 130 130 130 129 127 125 124
106 107 107 108 108 108 109 110 111 112 113 114 115 116 118 119 120 121 122 122 123 124 125 126 126 127 128 129 130 131 132 133 134 135 136 138 139 141 142 144 145 145 145 145 144 143 144 144 145 145 145 146 146 147 147 148 149 150 152 153 153 154 154 155 155 155 155 153 150 148 146 143 140 137 135 133 132 131 131 131 131 129 126 123 122
109 110 110 110 111 111 112 113 114 115 116 118 119 120 121 122 123 123 124 125 125 126 127 128 128 129 130 131 132 133 134 135 136 137 138 139 141 142 144 145 145 145 145 144 144 144 144 144 144 144 145 146 146 147 148 149 150 151 152 152 152 153 154 154 154 153 151 149 147 145 143 140 138 136 134 134 133 132 132 131 129 126 123 121 120
113 113 113 114 114 114 115 116 117 118 119 120 121 122 123 124 125 126 126 127 128 128 129 130 130 131 132 133 134 135 136 137 138 138 140 141 142 143 144 145 145 145 145 144 144 143 143 143 144 145 146 147 148 149 150 151 151 151 151 151 152 152 153 152 151 149 147 145 144 142 140 138 136 135 134 134 134 133 132 130 127 124 122 120 118
116 116 116 117 117 118 118 119 120 121 122 123 124 125 127 127 128 128 129 129 129 130 131 131 132 133 134 135 136 137 137 138 139 140 141 142 143 143 144 144 145 145 144 143 143 143 143 144 145 146 147 148 149 150 151 151 150 151 151 151 151 151 150 149 147 145 143 142 141 139 137 135 135 135 135 135 135 134 132 129 126 123 122 120 118
118 118 119 119 120 121 122 122 123 124 125 126 127 128 129 130 130 130 130 130 131 131 132 133 134 135 136 136 137 138 138 139 140 140 141 142 142 142 143 143 144 143 143 142 142 143 144 145 146 147 149 150 150 151 151 151 151 151 151 150 149 148 147 145 144 142 140 139 138 137 135 135 135 135 136 136 135 133 131 128 126 123 121 119 118
120 120 121 122 122 123 124 125 126 127 128 129 130 130 131 131 131 131 131 131 131 132 133 134 135 136 136 137 138 138 139 139 140 140 140 141 141 142 142 142 142 141 141 142 143 144 145 146 147 149 149 150 150 151 151 151 151 151 150 148 147 145 143 141 140 139 138 137 136 135 135 135 135 136 136 136 135 133 130 128 125 123 120 118 117
122 122 123 124 125 125 127 128 128 129 130 131 131 131 131 131 131 131 131 132 133 133 134 135 136 136 137 138 138 138 138 138 138 138 139 139 140 140 140 140 140 141 142 143 144 145 146 147 148 148 149 150 150 150 150 150 150 149 147 145 143 142 140 139 138 137 136 136 135 135 134 135 135 135 135 134 133 132 130 128 125 122 119 117 116
124 124 125 126 127 128 129 130 131 131 132 132 132 131 131 131 131 131 132 132 133 134 135 135 136 136 137 137 137 137 136 136 137 137 137 138 138 139 138 139 140 141 143 144 145 146 146 146 147 148 149 149 150 149 149 148 147 145 143 142 140 139 138 137 136 136 136 135 135 135 135 134 134 133 132 131 131 131 130 127 124 121 118 117 117
125 126 127 128 129 130 130 131 131 131 131 131 130 130 130 130 131 131 132 133 133 134 134 134 134 134 134 134 134 135 135 135 135 135 136 136 137 138 138 140 141 143 144 144 145 145 145 146 146 147 148 148 148 147 146 145 143 141 140 138 137 137 136 136 136 136 136 136 136 136 135 134 132 131 130 129 129 129 128 126 123 121 120 119 119
125 126 126 127 128 128 128 128 128 128 128 128 128 129 129 129 130 130 131 131 131 131 131 131 131 132 132 133 133 134 134 134 134 134 135 136 137 138 140 141 142 143 143 144 144 144 145 145 146 146 146 146 145 144 142 141 140 138 137 136 135 135 135 136 136 137 137 137 137 136 135 133 131 129 128 128 128 128 127 125 124 123 122 121 120
122 123 124 124 125 125 125 125 125 126 126 126 126 127 127 127 127 127 128 128 128 128 129 129 130 131 132 132 133 132 132 133 133 135 137 138 139 140 141 141 142 142 142 143 143 144 144 144 144 144 144 143 142 140 139 138 137 136 135 135 135 135 136 137 137 138 138 138 137 136 134 132 130 129 128 128 128 127 125 125 125 125 124 123 120
120 120 121 121 122 122 122 122 123 123 123 124 124 124 124 125 125 125 125 126 127 127 128 129 130 130 131 131 131 131 132 133 135 137 138 139 139 140 140 140 141 141 141 142 142 142 142 142 142 141 140 139 138 137 136 135 135 134 134 135 135 136 137 138 138 139 138 137 136 135 134 132 130 129 129 128 127 126 125 125 125 125 124 122 120
116 116 117 118 118 119 119 119 120 120 120 121 121 121 122 122 123 124 125 126 126 127 127 128 129 130 130 131 132 133 134 135 137 138 138 138 139 139 140 140 140 140 140 140 140 140 139 139 138 138 137 135 135 134 133 133 133 134 135 136 137 137 138 139 139 139 138 137 136 135 134 133 132 131 129 128 127 126 126 126 125 124 123 121 118
111 111 112 113 114 114 115 116 117 117 118 119 120 121 121 122 123 124 125 125 126 126 127 128 129 131 132 132 133 134 134 136 137 138 138 138 139 139 139 139 139 138 137 137 136 136 136 135 135 134 133 132 132 132 132 133 134 135 136 137 138 138 139 139 139 139 138 138 137 136 135 134 133 131 130 129 127 127 126 126 125 124 122 119 115
110 111 112 113 114 115 116 116 118 118 119 120 121 122 122 123 124 125 126 126 127 128 129 130 131 132 133 133 134 134 135 136 137 137 137 137 137 137 137 136 135 135 134 133 133 133 132 132 131 131 131 131 131 131 132 134 135 136 137 138 139 139 139 139 139 139 139 138 137 137 136 135 134 132 131 130 128 127 127 126 124 122 119 116 112
113 114 115 116 117 117 118 119 120 121 122 122 123 124 125 126 127 127 128 129 130 130 131 131 132 133 133 133 134 134 134 135 135 135 135 135 135 134 133 132 131 131 130 130 129 129 129 129 129 130 130 131 131 132 133 135 136 137 138 139 139 139 139 139 139 139 139 138 138 137 136 135 134 133 131 130 129 128 127 125 123 120 116 113 109
116 117 118 119 119 120 121 122 123 124 125 125 126 127 127 128 129 129 130 130 130 130 130 131 131 132 132 132 132 132 132 133 133 133 132 132 131 130 129 128 128 127 127 126 126 127 128 128 129 130 131 132 133 133 134 136 136 137 138 138 138 139 139 139 140 139 139 138 137 137 137 137 135 134 132 130 129 128 126 124 121 117 113 110 106
119 120 121 121 122 123 123 124 125 125 126 126 127 127 128 128 128 128 128 128 128 128 128 129 129 130 130 130 130 130 130 130 129 129 128 128 127 126 125 125 124 124 124 124 125 126 128 129 130 131 132 133 134 134 135 136 136 136 137 138 138 139 139 140 140 139 138 138 137 137 138 137 136 135 132 131 129 127 125 122 119 115 110 106 102
119 120 121 121 122 122 123 123 124 124 125 125 125 125 126 126 126 126 126 126 126 126 127 127 128 128 128 128 127 127 126 126 125 124 124 124 123 122 122 122 122 122 123 124 126 127 128 130 131 132 133 134 135 135 135 135 136 136 137 138 138 139 139 139 139 138 138 138 138 138 138 138 137 135 133 131 129 126 123 120 116 112 107 103 99
117 118 118 119 120 120 121 121 121 122 122 122 123 123 123 123 123 124 124 124 124 124 124 124 124 124 123 123 123 123 122 122 121 120 120 120 120 120 121 121 122 123 124 125 127 128 129 130 132 133 133 134 135 135 135 136 136 136 137 138 138 138 139 139 138 138 138 138 138 138 138 138 136 135 133 130 127 124 121 117 113 109 104 100 98
113 114 115 116 117 117 118 118 119 119 120 120 121 121 121 121 121 121 121 120 120 119 119 119 119 119 118 118 118 119 119 118 118 118 118 118 119 120 121 122 123 124 125 126 127 128 130 131 132 133 134 134 135 135 135 135 136 136 137 138 138 138 138 138 138 138 138 138 138 138 138 137 135 134 131 128 125 122 118 114 110 106 101 99 97
111 112 112 113 114 114 115 116 116 117 117 117 117 117 117 117 117 116 116 116 115 114 114 114 114 114 114 115 116 116 117 116 116 116 117 118 120 121 122 123 124 125 125 126 127 128 129 131 132 133 134 134 135 135 135 135 136 137 137 138 138 138 138 139 139 139 139 138 139 138 137 135 134 132 129 126 122 119 115 111 107 103 99 98 97
108 109 109 110 111 111 112 112 112 113 113 113 113 112 112 111 111 111 111 110 110 109 109 110 110 111 111 113 114 115 115 115 115 116 117 119 120 122 123 123 125 125 126 127 128 129 130 131 132 132 133 134 135 135 136 136 137 137 137 138 138 139 139 139 139 139 139 139 138 137 136 133 131 128 125 122 119 116 112 107 104 100 98 97 97
105 105 106 106 107 107 107 107 107 107 107 107 107 107 107 106 106 106 106 107 107 107 107 108 109 110 111 113 114 115 116 116 116 117 118 120 122 123 124 125 126 127 127 128 129 129 130 131 131 132 133 134 135 136 137 137 137 138 138 138 139 139 139 140 140 140 139 138 137 136 133 131 128 125 122 119 116 112 108 105 102 99 98 97 97
100 100 101 101 102 102 102 102 102 102 102 102 103 103 103 104 104 105 106 106 107 108 109 109 110 112 113 114 116 117 118 118 118 119 121 122 124 125 126 127 127 128 128 128 129 129 130 131 132 133 134 135 136 137 138 138 139 139 139 140 140 140 140 140 140 139 138 137 135 133 131 127 124 121 118 115 112 109 105 102 100 99 98 97 96
97 98 98 99 99 99 100 100 100 100 100 101 102 103 104 105 106 107 108 109 110 110 111 112 113 114 116 117 119 120 120 120 121 122 123 125 126 127 128 128 128 129 129 129 130 130 131 132 133 133 134 136 137 138 139 139 140 140 140 140 141 141 140 140 139 138 136 134 132 130 127 124 121 118 115 112 109 105 102 100 99 98 98 97 95
98 99 99 100 100 100 100 100 100 100 101 103 104 106 107 108 109 110 111 112 112 113 114 115 116 117 119 120 121 122 122 122 123 124 125 127 128 128 129 129 129 129 130 130 131 132 133 133 134 134 135 136 137 138 139 140 141 141 141 141 141 140 140 138 137 135 134 131 129 126 123 121 118 115 112 109 106 103 101 99 98 98 97 96 94
96 98 99 101 102 102 103 103 103 104 106 107 108 109 110 111 112 113 114 114 115 116 117 118 119 120 121 122 123 123 124 124 125 126 127 128 128 129 129 130 130 131 131 132 133 133 134 134 135 135 136 137 138 139 140 141 142 142 141 141 140 139 138 136 134 132 130 128 125 123 120 117 114 111 108 106 104 101 99 99 98 97 96 94 91
95 96 98 100 101 103 104 105 107 109 110 111 112 112 113 113 114 115 116 116 117 118 119 120 121 122 123 124 125 125 125 126 126 127 128 129 129 130 131 131 132 132 133 133 134 134 135 135 136 137 138 138 139 140 141 142 142 141 141 140 138 137 135 133 131 129 127 124 122 120 117 114 111 108 106 104 102 100 99 98 97 95 93 91 89
96 98 99 101 102 104 106 108 110 111 112 112 113 113 114 115 115 116 117 118 119 121 122 123 124 124 125 126 126 127 127 127 127 128 129 130 131 132 132 133 133 133 134 134 135 135 136 137 138 138 139 139 140 140 141 141 141 140 139 137 136 134 132 130 128 126 124 121 119 117 114 111 108 106 104 103 101 100 99 97 96 93 91 88 86
100 101 102 103 104 106 107 109 110 111 112 113 114 114 115 116 117 118 120 121 122 123 124 125 126 126 127 127 128 128 128 128 129 130 131 132 133 133 133 133 134 134 134 135 136 136 137 138 138 139 139 139 140 140 139 139 138 137 136 134 132 131 129 127 125 123 121 118 116 114 111 109 106 104 103 102 101 100 99 97 94 91 89 86 84
105 106 106 107 108 109 110 111 112 113 114 115 116 117 118 119 120 121 122 123 124 125 126 126 127 127 128 128 129 129 130 130 131 132 133 134 134 134 134 134 135 135 136 136 137 137 138 139 139 139 139 139 138 138 137 136 135 133 132 131 129 127 126 124 122 120 117 115 113 111 109 107 105 104 103 102 101 99 97 94 92 89 87 85 83
110 110 111 112 112 113 114 115 115 116 117 118 119 120 121 122 123 124 124 125 126 126 127 127 128 128 129 130 130 131 132 132 133 134 135 135 135 136 136 136 136 137 137 137 138 138 138 138 139 139 138 138 137 135 134 132 131 130 129 127 126 124 122 121 119 116 114 112 110 108 107 105 104 103 103 102 100 97 94 92 89 87 85 83 81
114 115 115 116 116 117 117 118 119 120 120 121 122 123 123 124 125 125 126 126 127 128 128 129 130 130 131 132 132 133 134 134 135 136 136 136 137 137 137 137 138 138 138 138 138 138 137 137 137 137 136 135 134 132 131 129 128 126 125 124 122 121 119 117 115 113 111 110 108 107 105 104 104 103 102 100 97 94 91 89 87 85 83 82 80
118 119 119 119 120 121 121 122 122 123 124 124 125 125 126 126 127 127 128 128 129 130 130 131 132 133 133 134 135 135 136 136 136 137 137 138 138 138 138 138 138 138 138 138 137 136 136 135 135 134 133 132 131 129 127 126 125 123 122 121 119 118 116 114 112 110 109 108 107 106 104 104 103 102 100 97 93 91 89 87 85 83 82 81 79
122 122 123 123 124 124 125 125 126 126 127 127 127 128 128 129 129 130 131 131 132 132 133 134 135 135 136 136 137 137 137 137 138 138 138 139 139 139 139 138 138 137 137 137 136 135 134 133 132 131 130 128 127 125 124 123 122 120 119 117 116 114 112 110 109 108 107 106 106 105 104 103 102 99 96 93 90 88 86 84 83 82 81 79 77
Wind_Direction
271 272 273 273 273 274 274 274 273 274 276 278 279 279 280 282 283 285 287 289 290 292 293 294 295 296 297 298 299 300 301 301 302 304 305 305 305 304 305 305 306 307 308 308 308 309 309 310 310 310 310 311 311 312 312 312 312 312 313 313 313 314 314 315 316 316 316 316 316 316 317 317 316 317 317 317 317 318 318 318 318 318 317 317 317
271 272 273 274 276 277 277 277 276 276 276 277 279 279 280 282 284 286 287 289 291 292 293 294 295 296 297 298 299 300 300 301 302 304 304 304 303 303 304 305 306 307 307 308 308 309 309 310 310 310 310 311 311 311 311 311 312 312 312 313 313 314 314 315 315 316 316 316 315 316 316 316 316 317 317 318 318 318 318 318 317 317 317 317 317
271 273 275 276 278 280 281 280 278 276 276 277 277 279 280 283 285 287 288 290 291 292 293 294 295 296 297 298 299 299 300 301 302 303 303 302 302 303 304 305 305 306 307 307 308 308 309 309 309 309 310 310 310 310 311 311 311 312 312 312 313 313 314 315 315 316 316 315 315 315 316 316 316 317 317 318 318 318 318 318 317 317 317 317 317
272 274 275 277 279 280 281 280 278 277 276 277 278 280 282 284 286 287 289 290 291 292 293 294 295 296 297 298 298 299 300 301 302 301 301 301 302 302 303 304 305 306 306 307 307 308 308 308 309 309 309 310 310 310 310 311 311 311 311 312 313 313 314 314 315 315 315 315 315 315 315 316 316 317 317 318 318 318 318 317 317 317 317 317 316
272 273 275 277 279 280 281 280 279 279 279 280 281 282 284 285 286 287 289 290 291 292 294 294 295 296 296 297 298 299 300 300 300 299 299 300 301 302 303 304 305 306 306 306 307 307 307 307 308 309 309 309 309 310 310 310 310 310 311 312 313 313 314 314 314 315 315 315 315 315 315 316 316 317 317 318 318 318 317 317 317 317 317 317 317
272 273 275 277 278 280 281 281 281 281 281 282 283 283 284 285 286 288 289 290 291 292 293 294 294 295 295 296 297 298 298 298 298 298 299 300 301 302 303 304 304 305 305 306 306 306 307 307 308 308 308 309 309 309 309 309 309 310 311 312 312 313 313 313 314 314 314 314 315 315 315 316 316 317 317 317 317 317 317 317 317 317 317 317 317
272 274 275 276 278 280 281 281 281 281 282 282 283 284 284 286 287 288 289 290 291 291 292 293 293 294 295 296 297 297 296 296 296 297 298 300 301 302 303 303 304 304 304 305 305 305 306 306 307 307 308 308 308 308 308 309 309 310 311 312 312 312 313 313 313 313 313 314 314 315 315 316 316 316 316 317 317 317 317 317 317 317 318 318 317
271 273 274 275 277 279 280 280 280 281 281 282 283 284 285 286 287 287 288 289 290 290 291 292 293 294 294 294 294 294 294 295 296 297 298 300 301 302 302 302 303 303 304 304 304 305 305 306 306 307 307 307 307 307 308 308 309 310 310 311 311 312 312 312 312 312 313 313 314 314 315 315 316 316 316 316 316 317 317 317 317 318 319 319 318
270 271 273 274 276 278 279 279 280 280 281 281 282 283 284 285 286 287 287 288 289 290 291 292 292 292 292 292 293 293 294 295 296 297 298 300 300 301 301 302 302 302 303 303 304 304 305 305 306 306 306 306 307 307 307 308 309 309 310 310 311 311 311 311 311 312 313 313 313 314 314 315 315 315 315 316 316 317 317 318 319 319 320 319 319
269 270 272 273 275 277 278 278 278 279 280 280 281 282 283 284 285 286 287 288 289 290 290 290 290 290 291 291 292 292 294 295 296 297 298 299 300 300 300 301 301 302 302 302 303 304 304 304 305 305 305 306 306 307 307 308 308 309 310 310 310 310 310 311 311 312 312 313 313 314 314 314 315 315 316 316 317 318 318 319 320 320 320 320 320
268 269 270 272 273 274 275 276 276 277 278 279 280 281 282 283 284 286 287 288 288 288 288 289 289 289 290 290 292 293 294 295 296 297 298 298 299 299 300 300 300 301 301 302 302 303 303 304 304 305 305 305 306 307 307 308 308 309 309 309 309 310 310 310 311 312 312 313 313 314 314 314 315 315 316 317 318 319 320 320 321 321 321 321 321
267 268 269 270 271 272 273 274 275 276 277 278 279 280 281 283 284 285 286 287 287 287 287 288 288 289 290 291 292 293 294 295 296 296 297 297 298 298 299 299 300 300 301 301 302 302 303 303 304 304 305 305 306 307 307 307 308 308 309 309 309 309 310 310 311 312 312 312 313 313 314 314 315 316 316 318 319 320 321 321 321 322 322 322 322
266 267 268 269 270 271 272 273 274 275 276 277 278 280 281 282 283 284 285 286 286 286 287 287 288 289 290 291 292 293 293 294 295 295 296 297 297 298 298 299 299 300 300 301 301 302 303 303 304 304 305 305 306 306 307 307 307 308 308 308 309 309 310 310 311 312 312 312 313 313 314 315 315 316 317 319 320 321 321 321 322 323 323 322 322
266 267 268 269 270 270 271 272 273 274 276 277 278 279 281 282 283 283 284 285 285 286 287 288 289 289 290 291 291 292 293 293 294 295 295 296 297 297 298 298 299 299 300 300 301 302 302 303 303 304 304 305 305 306 306 306 307 307 308 308 308 309 310 310 311 311 312 312 313 314 314 315 316 317 319 320 321 321 321 322 323 323 323 323 322
265 266 267 268 269 270 271 272 273 274 276 277 278 279 280 281 282 283 283 284 285 286 287 288 288 289 290 290 291 291 292 293 294 294 295 296 296 297 297 298 298 299 299 300 301 302 302 303 303 303 304 304 305 305 305 306 306 307 307 307 308 309 309 310 310 311 311 312 313 313 314 315 317 318 320 321 321 321 322 323 323 323 323 323 323
265 266 267 268 269 270 271 272 273 274 276 276 277 278 279 280 281 282 283 284 285 286 287 287 288 288 289 290 290 291 292 293 293 294 295 295 296 297 297 298 298 299 299 300 301 301 302 302 303 303 303 303 304 304 305 305 306 306 307 307 308 309 309 310 310 311 312 312 313 314 315 316 318 320 320 321 321 322 323 323 322 323 323 323 324
265 266 267 268 269 270 271 272 273 274 275 275 276 277 278 280 281 282 283 284 285 286 286 287 287 288 289 290 290 291 292 292 293 294 294 295 296 296 297 297 298 298 299 300 301 301 301 302 302 302 302 303 303 304 304 305 306 306 307 307 308 308 309 310 311 311 312 313 313 314 316 318 319 320 321 321 322 322 322 322 322 322 323 324 325
265 266 267 268 269 270 270 271 272 273 274 275 276 277 279 280 281 282 283 284 284 285 286 286 287 288 289 289 290 291 291 292 293 294 294 295 296 296 296 297 297 298 299 300 300 300 301 301 301 301 302 302 303 304 304 305 306 306 307 307 308 308 309 310 311 311 312 313 314 315 317 318 319 320 321 321 322 321 321 321 322 323 324 324 325
264 265 266 267 268 269 270 271 272 273 274 275 276 278 279 280 281 282 282 283 284 285 286 286 287 288 288 289 290 290 291 292 293 294 294 295 295 295 296 296 297 298 299 299 299 299 300 300 301 301 302 302 303 304 304 305 305 306 306 307 308 309 310 310 311 312 313 314 315 316 317 319 319 320 321 321 321 320 321 321 322 324 324 325 325
265 266 266 267 268 269 270 271 272 273 275 276 277 278 279 280 281 282 282 283 284 285 285 286 287 287 288 289 289 290 291 292 293 293 294 294 294 295 296 296 297 298 298 298 298 299 299 300 301 301 302 303 303 304 304 305 305 306 307 308 308 309 310 311 311 312 313 314 315 316 318 319 320 320 320 320 320 320 321 322 323 324 325 325 326
266 266 267 268 269 270 271 272 273 274 275 276 277 278 279 280 281 281 282 283 284 284 285 286 286 287 288 288 289 290 291 291 292 292 293 294 294 295 295 296 296 296 296 297 298 299 299 300 301 301 302 302 303 304 304 305 306 306 307 308 309 310 310 311 311 312 313 314 315 317 318 319 319 319 319 319 320 320 321 322 324 324 325 325 326
265 266 267 268 269 270 271 272 273 274 275 276 277 278 279 280 280 281 282 283 283 284 285 285 286 287 287 288 289 290 290 291 292 292 293 293 293 294 294 295 295 295 296 297 298 299 300 300 301 301 302 302 303 304 305 305 306 307 308 308 309 310 310 311 312 313 314 315 316 317 318 318 318 318 318 319 320 321 322 323 324 324 325 325 325
264 265 266 267 268 269 270 271 272 273 274 275 276 277 278 279 280 281 282 282 283 284 284 285 286 286 287 288 289 289 290 291 291 292 292 292 292 293 293 294 295 295 296 297 298 299 300 300 301 301 302 302 303 304 305 306 307 307 308 309 309 310 310 311 312 313 314 315 316 317 317 317 317 317 318 319 320 321 322 323 323 324 325 325 325
264 265 266 267 268 269 270 271 272 273 274 275 276 277 278 279 280 280 281 282 282 283 284 285 286 286 287 288 289 289 290 291 291 291 291 291 292 292 293 294 295 296 297 297 298 299 299 300 300 301 302 303 304 305 305 306 307 307 308 308 309 310 310 311 312 313 314 315 316 316 316 316 317 317 319 320 320 321 322 322 323 324 325 325 325
264 265 266 267 268 269 270 271 272 273 274 275 276 277 278 279 279 280 281 282 283 283 284 285 286 287 287 288 288 289 289 290 290 290 290 291 292 293 294 294 295 296 297 297 298 299 299 300 301 301 302 303 304 305 305 306 306 307 308 308 309 310 311 312 313 313 314 315 315 315 315 316 317 318 319 320 321 321 322 323 324 325 325 325 325
265 266 267 268 269 270 271 272 273 274 275 276 276 277 278 279 280 281 282 282 283 284 284 285 286 286 287 287 288 288 289 289 289 290 290 291 292 293 294 294 295 296 296 297 298 299 299 300 301 301 302 303 304 305 305 305 306 307 308 309 310 310 311 312 312 313 313 314 314 315 315 316 317 318 320 320 321 322 322 323 324 324 324 324 324
266 267 268 269 270 271 272 273 273 274 275 276 277 278 279 279 280 281 281 282 283 283 284 285 285 285 286 286 287 288 288 289 289 290 291 292 292 293 294 294 295 296 297 297 298 299 299 300 301 302 302 303 304 304 305 306 307 308 309 309 310 311 311 311 312 312 312 313 314 315 316 317 318 319 320 321 321 322 322 323 323 324 324 323 324
268 269 269 270 271 272 272 273 274 275 275 276 277 277 278 279 280 280 281 282 282 283 283 284 284 285 286 286 287 288 288 289 289 290 291 292 292 293 294 294 295 296 297 297 298 299 300 300 301 302 302 303 304 305 306 306 307 308 309 309 309 310 310 310 311 311 312 314 315 316 317 318 319 319 320 321 321 322 322 323 323 323 323 323 323
268 269 269 270 271 271 272 273 274 274 275 276 276 277 278 279 279 280 281 281 282 283 283 284 284 285 286 286 287 288 288 289 289 290 291 291 292 293 294 294 295 296 297 298 299 299 300 301 301 302 303 304 305 305 306 307 307 308 308 308 309 309 309 310 311 312 313 314 316 316 317 318 318 319 320 321 321 321 322 322 322 322 322 323 323
267 268 269 270 270 271 272 273 274 274 275 276 277 277 278 279 279 280 281 281 282 283 283 284 284 285 285 286 287 287 288 289 289 290 291 291 292 293 294 295 296 297 298 298 299 300 300 301 302 302 303 304 305 305 306 306 306 307 307 307 308 308 309 310 311 312 314 315 316 316 317 317 318 319 320 320 320 321 321 321 321 322 322 322 322
268 269 270 270 271 272 273 273 274 275 275 276 277 277 278 279 279 280 281 281 282 283 283 284 284 285 285 286 287 287 288 289 289 290 291 292 293 294 295 296 297 297 298 299 299 300 301 301 302 303 303 304 304 304 305 305 305 306 306 306 307 308 309 311 312 313 314 315 315 316 316 317 318 318 319 319 320 320 320 320 321 321 321 321 321
269 270 270 271 272 272 273 274 274 275 276 276 277 277 278 279 279 280 281 281 282 282 283 283 284 285 285 286 287 288 288 289 290 291 292 293 294 295 295 296 297 298 298 299 300 300 301 301 302 302 302 303 303 303 303 304 304 305 305 306 307 309 310 311 312 313 314 314 315 315 316 316 317 318 318 319 319 319 319 320 320 320 321 321 320
270 270 271 272 272 273 273 274 274 275 276 276 277 277 278 278 279 280 280 281 282 282 283 284 284 285 286 287 288 288 289 290 291 292 292 293 294 295 296 296 297 298 299 299 299 300 300 300 301 301 301 301 302 302 302 303 303 304 305 307 308 309 311 311 312 313 313 314 314 315 315 316 316 317 317 318 318 318 319 319 319 320 320 320 320
269 270 271 271 272 272 273 274 274 275 275 276 277 277 278 279 279 280 281 281 282 283 284 284 285 286 287 288 289 289 290 290 291 292 293 294 295 295 296 297 297 298 298 298 298 298 299 299 299 299 300 300 301 301 302 303 304 305 306 308 309 309 310 311 311 312 312 313 314 314 315 315 315 316 316 317 317 318 318 318 319 319 319 319 319
269 269 270 271 271 272 273 273 274 275 276 276 277 278 279 279 280 281 282 283 284 284 285 286 287 288 288 289 289 290 290 291 292 293 294 294 295 296 296 296 297 297 297 297 297 297 298 298 298 299 299 300 300 301 302 304 305 306 307 308 308 309 309 310 311 311 312 312 313 313 314 314 315 315 315 316 317 317 317 318 318 318 319 319 319
269 269 270 271 272 273 274 274 275 276 277 277 278 279 280 281 282 282 283 284 285 286 286 287 288 288 289 290 290 290 291 292 293 294 294 294 295 295 295 295 295 296 296 296 296 297 297 297 298 299 299 300 301 302 304 305 305 306 307 307 308 308 309 309 310 311 311 312 312 313 313 313 314 314 315 315 316 316 316 317 318 318 318 318 318
270 271 272 273 274 275 275 276 277 278 278 279 280 281 281 282 283 283 284 285 285 286 287 288 288 289 289 290 290 291 292 292 293 293 294 294 294 294 294 294 295 295 295 296 296 297 297 298 298 299 300 301 302 303 304 305 305 306 306 307 307 308 308 309 309 310 311 311 311 312 312 312 313 313 314 314 315 315 316 317 317 317 318 318 318
272 273 274 274 275 276 277 277 278 279 280 280 281 282 282 283 284 284 285 285 286 287 287 288 288 289 289 289 290 290 291 292 292 292 292 293 293 293 294 294 294 295 295 296 296 297 298 299 300 300 301 302 303 303 304 305 305 305 306 306 307 307 308 308 309 309 310 310 310 311 311 312 312 312 313 314 314 315 316 316 316 317 317 318 317
274 274 275 276 276 277 278 278 279 280 280 281 282 282 283 283 284 284 285 285 286 286 286 287 287 288 288 289 289 289 290 290 291 291 292 292 292 292 293 293 294 294 295 296 297 298 299 300 300 301 302 302 303 303 304 304 305 305 305 306 306 307 307 308 308 309 309 309 309 310 310 311 311 312 313 313 314 314 315 316 316 317 317 317 317
276 277 277 277 278 278 279 279 280 280 281 281 282 282 283 283 283 284 284 284 285 285 286 286 287 287 288 288 288 289 289 290 290 291 291 291 291 292 292 293 294 294 296 297 298 299 300 300 301 301 302 302 303 303 303 304 304 305 305 305 306 306 306 307 307 308 308 308 308 309 310 310 311 311 312 312 313 314 315 315 316 316 316 316 316
277 278 278 278 278 278 279 279 279 280 280 281 281 282 282 282 283 283 283 284 285 285 286 286 287 287 287 287 287 288 288 289 290 290 291 291 291 292 293 294 294 296 297 298 299 300 300 301 301 301 302 302 302 302 303 303 304 304 304 304 305 305 306 306 306 307 307 307 308 308 309 310 310 311 311 312 312 313 314 315 315 316 316 315 315
277 277 277 277 277 277 277 278 278 279 280 280 281 281 282 282 283 283 284 284 285 285 286 286 287 287 287 287 288 288 289 290 290 291 291 291 292 293 294 295 296 297 298 299 299 300 300 300 301 301 301 301 301 302 302 302 302 303 303 303 304 304 305 305 305 306 306 307 307 308 308 309 310 310 311 311 312 313 314 314 315 315 315 314 314
277 276 276 276 276 276 276 276 277 278 279 280 280 281 281 282 282 283 284 284 285 286 286 287 287 287 288 288 289 289 290 290 291 291 292 292 293 294 295 296 297 297 298 299 299 299 299 299 299 299 300 300 300 300 301 301 301 302 302 302 303 303 303 304 304 305 305 306 307 307 308 308 309 310 310 311 312 313 313 314 314 314 313 313 313
276 276 276 276 276 275 275 275 276 277 278 279 280 280 281 282 282 283 284 285 285 286 286 287 287 287 288 288 289 289 290 290 291 292 293 293 294 295 296 296 297 297 298 298 298 298 298 298 298 298 298 299 299 299 300 300 300 301 301 301 302 302 303 303 304 304 305 306 306 307 307 308 309 309 310 310 311 312 312 313 313 313 312 312 312
276 276 275 275 275 275 275 275 276 277 278 279 279 280 281 282 282 283 284 284 285 285 286 286 287 287 288 288 289 289 290 291 292 292 293 294 295 295 296 296 296 297 297 297 297 297 297 297 297 297 297 298 298 298 298 299 299 300 300 300 301 302 302 303 303 304 305 305 306 306 307 308 308 309 309 310 311 311 312 312 312 311 311 311 311
277 277 277 276 276 276 276 277 277 278 279 279 280 281 281 282 283 283 284 284 285 285 286 286 286 287 288 288 289 290 291 291 292 293 293 294 294 294 295 295 295 296 296 296 296 296 295 295 296 296 296 296 297 297 297 298 298 299 299 300 300 301 302 303 303 304 304 305 306 306 307 307 308 308 309 309 310 310 311 311 310 310 310 310 310
279 279 279 279 279 279 279 279 279 280 280 281 281 282 282 282 283 283 284 284 285 285 286 286 287 288 288 289 290 291 291 292 292 293 293 293 293 294 294 294 294 294 294 294 294 294 294 294 294 295 295 295 295 296 296 297 297 298 299 299 300 301 302 302 303 303 304 305 305 305 306 307 307 308 308 309 309 310 310 309 309 309 309 309 308
280 280 280 280 280 280 280 280 281 281 281 281 282 282 282 283 283 284 284 284 285 286 286 287 288 288 289 289 290 290 291 291 291 292 292 292 292 293 293 293 293 293 293 293 293 293 293 293 294 294 294 295 295 296 296 297 297 298 298 299 300 301 301 302 303 303 304 304 304 305 305 306 306 307 307 308 308 309 309 308 308 308 308 308 307
280 280 280 280 280 280 281 281 281 281 282 282 282 283 283 283 284 284 284 285 286 286 287 287 287 288 288 289 289 289 290 290 291 291 291 291 291 291 291 291 292 292 292 292 292 292 292 293 293 293 294 294 295 295 296 297 297 298 298 299 300 300 301 301 302 302 303 303 303 304 304 305 305 306 306 307 308 308 307 307 307 307 307 306 306
281 281 281 281 281 281 281 281 281 282 282 282 282 283 283 283 284 284 285 285 285 286 286 286 286 287 287 287 288 288 289 289 289 290 290 290 290 290 290 290 290 291 291 291 291 292 292 292 293 293 294 294 295 295 296 297 297 298 298 299 299 300 300 300 301 301 301 302 302 303 304 304 304 305 306 306 307 306 306 306 306 306 305 305 305
281 281 281 281 281 281 281 281 282 282 282 283 283 283 284 284 284 284 284 284 284 285 285 285 286 286 286 287 287 288 288 288 288 288 289 289 289 289 289 289 289 290 290 290 291 291 292 292 293 293 294 294 295 295 296 296 297 297 297 298 298 299 299 299 300 300 300 301 302 302 303 303 304 305 305 305 305 305 305 305 305 304 304 304 304
Height
10771 10770 10770 10769 10769 10768 10768 10767 10766 10765 10764 10762 10760 10758 10755 10753 10750 10748 10745 10742 10739 10736 10733 10730 10727 10724 10720 10717 10714 10711 10708 10704 10701 10697 10693 10688 10684 10678 10673 10667 10662 10657 10652 10647 10641 10636 10630 10623 10617 10611 10606 10601 10596 10590 10584 10578 10572 10567 10561 10555 10549 10543 10539 10535 10531 10531 10523 10505 10493 10489 10482 10473 10466 10457 10451 10447 10439 10428 10417 10405 10394 10383 10372 10362 10353
10763 10763 10762 10761 10761 10761 10760 10760 10758 10757 10755 10754 10751 10749 10747 10744 10741 10739 10736 10733 10730 10727 10724 10721 10718 10715 10711 10708 10705 10702 10698 10694 10691 10687 10682 10678 10673 10667 10662 10657 10652 10646 10641 10636 10630 10624 10618 10611 10605 10599 10594 10589 10584 10578 10572 10565 10559 10553 10547 10541 10535 10528 10521 10518 10512 10510 10508 10497 10482 10474 10468 10458 10450 10442 10435 10429 10423 10417 10408 10396 10384 10374 10362 10350 10341
10755 10755 10754 10754 10753 10753 10752 10751 10750 10748 10747 10745 10743 10740 10738 10735 10733 10730 10727 10724 10721 10719 10716 10712 10709 10705 10702 10698 10695 10692 10688 10685 10681 10677 10672 10667 10662 10657 10652 10647 10642 10636 10630 10625 10619 10613 10607 10601 10594 10588 10583 10578 10572 10566 10560 10553 10546 10540 10534 10527 10521 10514 10506 10500 10495 10490 10488 10484 10472 10461 10455 10446 10435 10427 10421 10413 10404 10397 10391 10381 10370 10360 10348 10336 10327
10747 10747 10746 10746 10746 10745 10744 10743 10741 10740 10738 10736 10734 10732 10729 10726 10724 10721 10718 10715 10712 10709 10706 10702 10699 10695 10692 10688 10685 10682 10679 10675 10671 10666 10661 10656 10651 10647 10642 10637 10631 10625 10620 10614 10608 10603 10596 10590 10584 10578 10572 10566 10560 10554 10547 10540 10534 10526 10521 10514 10507 10500 10492 10484 10478 10472 10468 10465 10459 10448 10439 10433 10423 10412 10405 10401 10392 10382 10374 10365 10354 10345 10335 10321 10307
10739 10738 10738 10738 10738 10736 10736 10734 10733 10731 10729 10727 10725 10723 10720 10717 10714 10712 10709 10706 10702 10699 10695 10692 10688 10685 10682 10679 10676 10673 10669 10664 10660 10655 10650 10646 10641 10636 10631 10626 10621 10615 10609 10603 10598 10592 10586 10580 10574 10568 10562 10555 10548 10542 10535 10527 10521 10514 10507 10501 10493 10486 10478 10470 10462 10455 10449 10444 10441 10434 10424 10415 10409 10399 10388 10382 10378 10370 10364 10357 10345 10332 10324 10313 10294
10730 10730 10729 10729 10729 10728 10726 10725 10723 10722 10720 10718 10716 10713 10710 10707 10705 10702 10699 10695 10692 10689 10685 10682 10679 10676 10672 10670 10666 10663 10658 10653 10648 10644 10639 10635 10630 10626 10621 10615 10610 10604 10598 10593 10587 10581 10575 10569 10564 10558 10551 10544 10537 10530 10523 10515 10508 10501 10495 10488 10480 10473 10465 10456 10448 10440 10433 10426 10421 10416 10409 10400 10394 10387 10377 10367 10359 10351 10345 10343 10336 10322 10311 10302 10288
10721 10721 10721 10720 10719 10718 10717 10715 10713 10712 10709 10707 10705 10703 10700 10697 10695 10692 10689 10686 10683 10679 10676 10673 10670 10666 10663 10660 10656 10652 10647 10641 10637 10633 10628 10624 10620 10615 10610 10605 10599 10593 10588 10582 10576 10570 10565 10559 10554 10547 10540 10533 10526 10519 10512 10504 10496 10489 10483 10475 10468 10461 10453 10444 10435 10426 10419 10413 10405 10399 10393 10385 10378 10372 10365 10356 10347 10335 10323 10319 10318 10309 10298 10287 10272
10713 10713 10712 10711 10709 10709 10707 10705 10703 10701 10699 10697 10694 10692 10690 10687 10685 10682 10679 10676 10673 10670 10667 10663 10660 10657 10654 10650 10645 10640 10635 10630 10626 10622 10617 10613 10609 10604 10599 10594 10588 10583 10577 10571 10565 10559 10554 10548 10543 10537 10529 10522 10516 10509 10501 10493 10486 10478 10471 10463 10456 10449 10441 10432 10423 10414 10406 10399 10392 10385 10379 10371 10363 10357 10352 10344 10336 10327 10315 10304 10297 10288 10279 10269 10254
10705 10704 10703 10701 10699 10698 10697 10695 10692 10690 10688 10686 10684 10682 10680 10677 10675 10672 10669 10667 10663 10660 10657 10654 10651 10647 10642 10638 10633 10628 10623 10619 10615 10611 10607 10602 10598 10593 10588 10582 10577 10572 10565 10560 10554 10549 10543 10537 10532 10526 10519 10512 10505 10498 10490 10482 10475 10467 10460 10452 10444 10436 10429 10420 10411 10403 10395 10387 10378 10371 10366 10357 10348 10342 10338 10331 10322 10313 10303 10291 10282 10271 10259 10252 10242
10695 10694 10692 10691 10689 10688 10686 10683 10681 10679 10677 10676 10674 10672 10670 10667 10665 10662 10659 10657 10654 10651 10647 10643 10639 10635 10631 10626 10621 10617 10612 10608 10604 10600 10596 10592 10587 10582 10577 10571 10566 10560 10554 10548 10543 10538 10532 10526 10520 10514 10507 10500 10493 10486 10478 10469 10462 10455 10447 10439 10431 10423 10416 10407 10398 10390 10383 10374 10364 10356 10351 10344 10335 10326 10321 10315 10306 10296 10285 10273 10264 10256 10244 10234 10228
10685 10683 10682 10681 10679 10678 10675 10673 10671 10669 10667 10665 10664 10662 10660 10657 10655 10652 10650 10647 10643 10640 10636 10632 10627 10623 10619 10615 10610 10606 10602 10597 10593 10589 10585 10580 10575 10570 10565 10559 10553 10547 10542 10537 10531 10526 10520 10514 10508 10502 10494 10487 10480 10473 10465 10456 10449 10442 10433 10425 10416 10408 10401 10393 10385 10377 10368 10360 10350 10340 10334 10329 10321 10311 10303 10298 10291 10281 10270 10258 10247 10237 10225 10212 10206
10674 10673 10672 10670 10668 10667 10665 10662 10660 10658 10657 10655 10653 10652 10650 10648 10645 10642 10639 10636 10632 10628 10624 10620 10616 10612 10608 10604 10600 10596 10591 10586 10582 10578 10574 10569 10564 10559 10552 10546 10540 10534 10529 10524 10519 10514 10508 10501 10495 10488 10481 10474 10467 10459 10451 10442 10435 10427 10419 10410 10401 10392 10385 10377 10370 10362 10353 10345 10336 10326 10317 10311 10304 10295 10287 10281 10275 10267 10256 10246 10234 10222 10209 10195 10184
10663 10662 10660 10659 10658 10656 10654 10652 10650 10648 10646 10645 10643 10641 10639 10637 10634 10631 10627 10624 10620 10616 10612 10609 10605 10601 10598 10594 10589 10585 10580 10575 10571 10566 10563 10558 10552 10546 10540 10533 10527 10521 10516 10511 10506 10501 10495 10489 10482 10474 10467 10461 10454 10446 10438 10429 10421 10413 10404 10396 10386 10378 10370 10362 10353 10345 10337 10329 10322 10312 10302 10294 10288 10281 10272 10263 10256 10249 10241 10232 10222 10211 10199 10184 10170
10653 10651 10650 10648 10647 10645 10643 10641 10640 10638 10636 10634 10632 10630 10628 10625 10621 10618 10615 10612 10608 10605 10601 10598 10594 10590 10587 10582 10578 10573 10568 10564 10559 10555 10551 10546 10540 10534 10527 10520 10514 10508 10503 10499 10494 10490 10484 10476 10469 10461 10454 10448 10440 10433 10425 10417 10408 10400 10391 10382 10373 10365 10357 10349 10340 10331 10322 10314 10307 10299 10289 10280 10272 10265 10257 10248 10239 10231 10223 10213 10204 10197 10188 10173 10157
10642 10640 10638 10637 10635 10634 10632 10631 10629 10627 10625 10623 10621 10619 10615 10612 10608 10605 10603 10600 10597 10593 10590 10586 10583 10579 10575 10571 10566 10562 10557 10552 10548 10543 10539 10534 10527 10520 10513 10507 10500 10494 10490 10486 10482 10478 10472 10464 10456 10448 10441 10434 10427 10421 10414 10405 10397 10389 10380 10370 10361 10353 10345 10337 10328 10319 10310 10301 10293 10285 10276 10266 10258 10250 10242 10234 10226 10217 10207 10196 10186 10179 10173 10162 10147
10630 10628 10626 10625 10624 10623 10622 10620 10618 10616 10614 10612 10609 10605 10602 10599 10596 10594 10592 10589 10585 10582 10578 10575 10571 10567 10563 10559 10554 10550 10545 10540 10536 10531 10527 10521 10514 10507 10500 10493 10487 10481 10477 10473 10470 10465 10458 10450 10443 10436 10428 10421 10415 10408 10402 10394 10386 10377 10368 10358 10349 10341 10333 10324 10315 10305 10296 10287 10279 10270 10261 10252 10243 10235 10226 10218 10211 10203 10195 10186 10176 10168 10161 10153 10141
10618 10616 10614 10613 10612 10611 10610 10609 10607 10604 10601 10598 10595 10592 10590 10587 10585 10583 10580 10577 10574 10570 10566 10562 10559 10555 10551 10547 10542 10538 10533 10528 10523 10518 10513 10507 10500 10493 10486 10479 10473 10468 10464 10461 10457 10451 10444 10437 10430 10423 10415 10408 10402 10396 10389 10381 10373 10364 10356 10347 10337 10329 10320 10312 10303 10292 10282 10274 10264 10255 10246 10237 10229 10220 10211 10203 10195 10189 10183 10176 10169 10160 10151 10143 10133
10605 10603 10603 10602 10601 10600 10598 10596 10594 10591 10588 10586 10583 10581 10579 10576 10574 10571 10568 10565 10561 10558 10554 10550 10547 10543 10539 10534 10530 10525 10520 10515 10511 10505 10500 10493 10487 10480 10473 10467 10460 10455 10451 10447 10442 10436 10430 10424 10417 10409 10402 10395 10389 10382 10375 10368 10360 10351 10343 10335 10325 10317 10308 10300 10291 10281 10271 10261 10252 10243 10234 10226 10217 10208 10199 10191 10183 10177 10171 10165 10157 10150 10140 10130 10121
10593 10592 10592 10590 10588 10587 10586 10583 10581 10579 10576 10574 10572 10569 10567 10564 10561 10559 10556 10553 10549 10545 10542 10538 10534 10530 10526 10521 10516 10512 10507 10503 10498 10493 10486 10480 10474 10467 10461 10454 10447 10442 10438 10433 10427 10421 10415 10410 10403 10395 10388 10381 10375 10368 10361 10353 10346 10338 10330 10323 10314 10305 10296 10287 10278 10270 10260 10250 10240 10232 10225 10217 10208 10198 10188 10179 10171 10165 10158 10151 10143 10137 10128 10117 10108
10583 10582 10580 10578 10576 10575 10573 10571 10569 10567 10564 10562 10559 10556 10554 10551 10549 10547 10543 10540 10537 10533 10529 10525 10521 10517 10512 10508 10503 10498 10494 10490 10486 10480 10473 10466 10461 10454 10448 10441 10435 10430 10424 10418 10412 10407 10401 10395 10388 10380 10373 10366 10359 10353 10346 10338 10331 10324 10316 10309 10301 10292 10284 10275 10266 10257 10249 10240 10230 10221 10214 10206 10197 10188 10178 10168 10159 10151 10145 10138 10130 10123 10116 10106 10096
10570 10569 10568 10566 10564 10563 10561 10559 10556 10554 10551 10549 10546 10544 10541 10539 10537 10534 10531 10527 10524 10520 10516 10512 10508 10504 10499 10495 10490 10486 10482 10478 10473 10467 10460 10453 10447 10441 10435 10429 10423 10417 10410 10404 10398 10393 10387 10380 10373 10365 10357 10350 10344 10338 10331 10323 10315 10308 10301 10294 10286 10279 10271 10262 10254 10246 10237 10229 10221 10212 10205 10196 10188 10179 10170 10160 10149 10140 10132 10125 10118 10111 10104 10096 10088
10557 10556 10555 10554 10552 10550 10548 10546 10543 10541 10539 10536 10534 10532 10529 10527 10524 10521 10518 10514 10511 10507 10503 10499 10494 10490 10486 10481 10477 10473 10469 10465 10460 10454 10448 10440 10433 10427 10422 10417 10410 10403 10396 10390 10385 10379 10372 10366 10359 10350 10342 10336 10330 10324 10316 10308 10301 10293 10286 10279 10272 10265 10257 10249 10242 10235 10227 10219 10212 10204 10196 10189 10181 10172 10163 10152 10141 10130 10122 10115 10108 10101 10095 10087 10080
10544 10543 10542 10540 10538 10537 10535 10533 10531 10529 10527 10524 10522 10520 10517 10514 10511 10508 10505 10501 10497 10494 10490 10485 10481 10477 10473 10468 10464 10459 10456 10452 10446 10440 10434 10427 10420 10414 10410 10404 10397 10389 10383 10377 10371 10365 10358 10352 10344 10337 10328 10322 10316 10309 10302 10294 10287 10280 10273 10266 10259 10251 10244 10237 10230 10223 10215 10208 10201 10194 10188 10181 10174 10165 10156 10145 10134 10122 10113 10106 10099 10093 10086 10078 10069
10531 10529 10528 10526 10525 10523 10522 10520 10518 10516 10514 10511 10509 10506 10504 10500 10498 10495 10491 10488 10484 10480 10476 10472 10468 10463 10459 10454 10450 10445 10442 10438 10432 10426 10419 10412 10407 10402 10397 10391 10383 10376 10370 10363 10357 10351 10344 10337 10330 10322 10314 10308 10302 10295 10288 10281 10274 10267 10260 10254 10247 10239 10232 10225 10218 10211 10204 10197 10190 10183 10177 10171 10164 10156 10147 10137 10126 10115 10104 10096 10088 10082 10075 10067 10059
10517 10516 10514 10513 10511 10510 10509 10507 10505 10503 10500 10498 10496 10493 10490 10487 10484 10481 10477 10474 10470 10466 10462 10458 10454 10449 10445 10440 10435 10432 10428 10423 10417 10410 10403 10398 10394 10389 10383 10376 10370 10363 10357 10350 10344 10338 10330 10323 10316 10309 10301 10295 10289 10282 10275 10268 10262 10255 10248 10241 10234 10226 10220 10212 10205 10198 10191 10185 10178 10172 10165 10159 10152 10145 10136 10127 10116 10106 10096 10085 10076 10068 10061 10055 10048
10503 10502 10501 10500 10498 10497 10495 10493 10491 10489 10487 10484 10482 10479 10476 10473 10470 10467 10463 10459 10455 10452 10449 10445 10440 10435 10430 10426 10422 10418 10414 10408 10402 10395 10388 10384 10380 10375 10368 10362 10356 10350 10343 10336 10330 10324 10317 10309 10303 10296 10289 10282 10276 10269 10262 10256 10249 10242 10235 10228 10221 10214 10207 10200 10193 10186 10179 10173 10166 10159 10152 10145 10138 10131 10123 10115 10105 10095 10086 10077 10067 10059 10050 10043 10036
10489 10488 10487 10486 10485 10483 10482 10480 10478 10476 10473 10471 10468 10466 10462 10459 10456 10453 10449 10445 10442 10439 10435 10431 10426 10421 10416 10411 10408 10404 10399 10393 10386 10379 10375 10371 10366 10360 10354 10348 10342 10336 10329 10323 10316 10310 10303 10296 10290 10283 10276 10270 10264 10256 10249 10242 10235 10229 10222 10215 10208 10201 10195 10188 10181 10174 10167 10161 10154 10146 10138 10130 10124 10117 10110 10102 10094 10084 10075 10068 10060 10052 10042 10033 10025
10476 10475 10474 10473 10471 10470 10468 10466 10464 10462 10459 10457 10455 10452 10449 10446 10443 10440 10435 10432 10429 10425 10421 10417 10412 10406 10402 10398 10394 10389 10384 10378 10370 10365 10361 10357 10351 10345 10340 10334 10328 10322 10316 10309 10302 10296 10289 10283 10276 10270 10263 10257 10250 10243 10236 10229 10222 10216 10209 10202 10195 10189 10182 10175 10168 10160 10153 10146 10139 10130 10122 10115 10109 10103 10096 10090 10083 10074 10066 10058 10051 10043 10034 10025 10016
10462 10461 10460 10459 10457 10456 10454 10452 10450 10448 10445 10443 10441 10438 10435 10432 10429 10426 10421 10417 10415 10411 10407 10402 10397 10392 10388 10384 10379 10375 10369 10362 10355 10351 10348 10342 10337 10332 10326 10320 10315 10309 10302 10295 10288 10281 10275 10269 10262 10256 10249 10243 10237 10230 10223 10215 10209 10203 10196 10189 10182 10176 10169 10162 10154 10146 10139 10132 10124 10115 10108 10101 10095 10090 10084 10078 10071 10064 10056 10048 10040 10032 10024 10016 10007
10449 10448 10447 10445 10444 10442 10440 10438 10436 10434 10431 10429 10427 10424 10421 10418 10415 10411 10407 10403 10400 10397 10392 10387 10382 10377 10373 10369 10364 10360 10354 10347 10341 10337 10333 10328 10323 10318 10312 10306 10301 10294 10288 10281 10274 10267 10261 10255 10248 10242 10236 10230 10225 10218 10211 10203 10196 10189 10183 10175 10168 10162 10155 10149 10141 10133 10125 10118 10110 10103 10096 10089 10084 10079 10073 10066 10059 10053 10046 10039 10031 10023 10015 10006 9998
10435 10434 10433 10431 10430 10428 10426 10424 10422 10419 10417 10414 10412 10409 10406 10403 10399 10396 10392 10389 10386 10382 10377 10372 10366 10362 10358 10354 10349 10345 10339 10333 10327 10323 10318 10313 10308 10303 10297 10292 10286 10279 10273 10267 10260 10254 10247 10241 10235 10229 10223 10217 10212 10206 10199 10192 10184 10177 10170 10163 10156 10150 10143 10135 10128 10120 10113 10105 10098 10091 10084 10078 10072 10068 10062 10056 10049 10042 10035 10028 10021 10014 10006 9997 9989
10421 10420 10418 10416 10415 10413 10411 10409 10406 10404 10401 10399 10396 10394 10391 10387 10384 10381 10377 10374 10371 10366 10361 10356 10351 10347 10343 10340 10335 10330 10325 10319 10313 10308 10303 10298 10294 10289 10284 10278 10272 10266 10260 10254 10247 10240 10234 10228 10222 10216 10210 10204 10200 10195 10188 10181 10174 10167 10159 10151 10144 10138 10130 10122 10115 10108 10101 10094 10087 10079 10072 10065 10060 10056 10051 10045 10038 10031 10024 10017 10010 10004 9997 9989 9981
10406 10404 10402 10401 10399 10397 10395 10393 10390 10388 10386 10383 10381 10378 10375 10372 10369 10366 10362 10359 10355 10351 10346 10341 10337 10333 10329 10325 10320 10315 10310 10305 10300 10295 10289 10284 10280 10275 10271 10265 10259 10253 10248 10241 10234 10227 10221 10216 10210 10204 10197 10192 10187 10182 10176 10169 10162 10155 10148 10139 10132 10124 10117 10110 10103 10096 10090 10083 10076 10069 10061 10054 10048 10043 10039 10033 10027 10020 10013 10006 9999 9993 9987 9980 9972
10390 10388 10386 10385 10383 10381 10379 10377 10374 10372 10370 10367 10365 10362 10360 10357 10354 10351 10347 10343 10340 10336 10331 10326 10322 10318 10313 10309 10305 10300 10295 10291 10287 10282 10276 10271 10267 10262 10257 10251 10245 10240 10235 10229 10222 10215 10210 10204 10197 10191 10185 10179 10173 10168 10163 10156 10149 10142 10134 10126 10119 10112 10105 10098 10091 10085 10078 10072 10065 10057 10050 10042 10036 10031 10025 10020 10014 10008 10002 9994 9988 9982 9976 9969 9962
10375 10373 10371 10370 10368 10366 10364 10362 10359 10357 10354 10352 10350 10347 10344 10341 10338 10335 10332 10328 10325 10320 10316 10311 10307 10303 10298 10294 10289 10284 10281 10278 10274 10269 10264 10258 10253 10248 10243 10238 10233 10227 10222 10216 10210 10204 10197 10191 10184 10178 10172 10165 10160 10154 10149 10142 10135 10128 10120 10113 10106 10099 10092 10085 10079 10073 10066 10059 10052 10045 10038 10031 10024 10018 10013 10008 10002 9995 9989 9982 9976 9970 9964 9958 9952
10361 10359 10357 10355 10353 10351 10349 10347 10344 10342 10340 10337 10334 10332 10329 10326 10323 10320 10316 10313 10310 10306 10301 10297 10292 10288 10284 10279 10273 10269 10266 10264 10260 10256 10250 10245 10239 10234 10230 10225 10219 10214 10209 10203 10197 10191 10184 10178 10171 10164 10157 10151 10145 10139 10134 10127 10120 10113 10106 10099 10093 10086 10079 10072 10066 10060 10053 10047 10041 10034 10027 10020 10013 10006 10000 9996 9990 9984 9978 9971 9965 9959 9953 9947 9941
10347 10345 10344 10342 10340 10337 10334 10332 10329 10327 10324 10322 10319 10317 10314 10311 10308 10305 10302 10298 10295 10292 10288 10284 10278 10274 10270 10264 10258 10254 10253 10250 10247 10242 10237 10231 10225 10220 10216 10211 10206 10200 10195 10190 10184 10178 10171 10164 10157 10150 10142 10135 10129 10123 10118 10112 10105 10099 10092 10086 10079 10073 10066 10059 10053 10047 10041 10035 10028 10021 10015 10009 10002 9995 9988 9983 9977 9972 9966 9961 9954 9948 9942 9936 9930
10333 10332 10330 10328 10326 10323 10320 10318 10315 10312 10310 10307 10304 10302 10300 10297 10293 10290 10287 10284 10281 10279 10275 10270 10266 10261 10256 10250 10244 10240 10238 10237 10234 10229 10223 10217 10211 10206 10201 10197 10191 10186 10181 10176 10170 10163 10156 10149 10142 10134 10127 10120 10114 10108 10103 10098 10091 10085 10079 10073 10066 10059 10053 10046 10040 10034 10029 10023 10016 10009 10003 9997 9992 9985 9978 9971 9965 9960 9954 9949 9943 9937 9931 9925 9919
10319 10318 10316 10314 10311 10309 10306 10304 10301 10298 10296 10293 10290 10288 10285 10282 10279 10276 10273 10270 10268 10265 10261 10258 10254 10249 10243 10237 10231 10227 10224 10223 10220 10215 10208 10202 10196 10190 10186 10182 10176 10171 10167 10161 10154 10148 10141 10133 10126 10119 10112 10106 10099 10093 10088 10083 10077 10071 10065 10058 10052 10046 10039 10033 10027 10021 10016 10010 10003 9997 9991 9986 9980 9974 9967 9960 9954 9948 9943 9937 9931 9925 9920 9914 9908
10305 10303 10301 10299 10297 10294 10292 10290 10287 10284 10282 10279 10276 10273 10271 10268 10265 10263 10260 10257 10254 10251 10247 10244 10241 10235 10229 10223 10218 10213 10211 10209 10206 10200 10194 10187 10180 10175 10171 10167 10161 10156 10151 10145 10138 10132 10125 10118 10111 10104 10098 10091 10084 10078 10073 10067 10061 10056 10050 10044 10038 10031 10025 10019 10013 10008 10002 9996 9990 9984 9979 9973 9968 9962 9956 9949 9943 9938 9932 9926 9920 9914 9908 9902 9896
10291 10290 10288 10285 10283 10281 10278 10276 10273 10271 10269 10266 10263 10260 10257 10254 10251 10248 10246 10242 10239 10236 10232 10230 10226 10220 10215 10210 10204 10200 10197 10196 10191 10185 10178 10172 10165 10159 10155 10150 10144 10139 10134 10128 10122 10116 10109 10103 10097 10090 10083 10077 10070 10064 10059 10052 10046 10041 10035 10029 10023 10017 10011 10005 10000 9994 9988 9983 9977 9971 9966 9961 9955 9950 9944 9938 9932 9927 9921 9915 9909 9904 9898 9891 9886
10278 10277 10274 10272 10270 10268 10265 10262 10260 10258 10255 10252 10249 10246 10243 10240 10236 10233 10230 10227 10224 10220 10217 10214 10210 10204 10199 10194 10189 10185 10183 10180 10175 10168 10162 10156 10150 10144 10139 10133 10128 10123 10117 10112 10105 10099 10093 10088 10081 10075 10068 10062 10056 10050 10045 10038 10032 10026 10021 10015 10010 10003 9997 9992 9986 9981 9975 9970 9964 9959 9953 9948 9943 9938 9932 9926 9920 9915 9910 9904 9899 9893 9887 9881 9875
10265 10263 10261 10259 10257 10254 10252 10249 10247 10244 10241 10238 10235 10232 10228 10225 10222 10218 10215 10211 10208 10204 10200 10197 10192 10188 10183 10178 10173 10169 10167 10163 10157 10151 10145 10139 10134 10128 10122 10116 10111 10107 10101 10095 10089 10083 10077 10072 10066 10060 10053 10047 10042 10036 10030 10023 10017 10011 10006 10001 9995 9989 9983 9978 9973 9967 9962 9956 9951 9946 9941 9936 9931 9925 9919 9914 9908 9904 9899 9894 9889 9883 9877 9871 9865
10251 10249 10247 10245 10242 10240 10238 10235 10232 10230 10227 10224 10220 10217 10213 10210 10207 10203 10199 10195 10191 10187 10183 10179 10175 10171 10166 10161 10157 10153 10150 10146 10140 10134 10128 10123 10117 10111 10106 10100 10095 10090 10085 10079 10073 10068 10062 10056 10050 10044 10038 10032 10027 10021 10014 10008 10002 9996 9990 9985 9980 9975 9969 9964 9959 9953 9948 9942 9937 9931 9927 9923 9918 9913 9907 9901 9896 9892 9888 9883 9878 9873 9867 9861 9856
10237 10235 10233 10230 10228 10226 10223 10220 10218 10215 10212 10209 10205 10202 10198 10194 10191 10187 10183 10179 10175 10171 10166 10162 10158 10154 10150 10145 10140 10137 10133 10129 10124 10118 10112 10106 10101 10095 10089 10084 10080 10074 10069 10063 10057 10052 10045 10039 10034 10029 10023 10017 10011 10005 9999 9993 9987 9980 9975 9970 9965 9960 9955 9950 9944 9939 9934 9928 9922 9917 9912 9908 9904 9899 9894 9889 9884 9880 9876 9871 9867 9862 9856 9851 9846
10221 10219 10217 10215 10212 10210 10207 10204 10202 10199 10196 10193 10189 10186 10182 10178 10174 10171 10167 10163 10158 10154 10150 10145 10141 10137 10132 10127 10123 10119 10116 10111 10106 10100 10094 10089 10084 10078 10073 10069 10064 10058 10052 10047 10042 10036 10030 10023 10018 10013 10008 10002 9997 9991 9984 9978 9972 9966 9960 9955 9950 9945 9940 9935 9929 9924 9919 9914 9908 9903 9898 9894 9890 9886 9881 9876 9872 9868 9863 9859 9854 9849 9845 9840 9836
10204 10202 10200 10197 10195 10192 10190 10187 10184 10182 10179 10175 10172 10169 10165 10161 10157 10153 10149 10145 10141 10137 10133 10128 10123 10119 10114 10110 10105 10101 10097 10093 10088 10083 10077 10071 10066 10061 10057 10052 10047 10042 10036 10030 10025 10020 10014 10008 10003 9997 9992 9987 9982 9976 9970 9963 9957 9951 9945 9939 9934 9929 9924 9919 9914 9909 9904 9899 9894 9889 9884 9880 9877 9872 9868 9864 9860 9856 9851 9847 9842 9837 9833 9829 9824
10186 10184 10182 10179 10177 10174 10172 10169 10166 10164 10160 10157 10154 10151 10147 10143 10139 10135 10131 10127 10122 10118 10114 10110 10105 10101 10097 10093 10088 10083 10079 10074 10070 10064 10059 10053 10048 10043 10039 10034 10029 10025 10019 10013 10008 10003 9997 9991 9985 9980 9974 9969 9964 9959 9953 9947 9941 9935 9929 9924 9919 9914 9909 9905 9900 9895 9890 9885 9880 9876 9872 9868 9864 9860 9856 9852 9848 9844 9839 9834 9830 9825 9821 9817 9813
10167 10165 10163 10161 10159 10156 10153 10151 10148 10145 10142 10139 10136 10133 10129 10125 10121 10117 10113 10108 10104 10100 10095 10091 10087 10083 10079 10075 10070 10065 10060 10056 10051 10046 10040 10034 10029 10025 10021 10016 10011 10007 10001 9995 9990 9985 9980 9974 9967 9961 9956 9951 9946 9941 9936 9930 9925 9919 9914 9909 9904 9899 9895 9890 9885 9881 9876 9871 9867 9863 9860 9856 9852 9848 9844 9840 9836 9832 9827 9822 9818 9814 9809 9805 9802
10148 10146 10144 10142 10139 10137 10134 10131 10129 10126 10122 10119 10117 10113 10109 10106 10102 10097 10093 10089 10086 10081 10076 10072 10068 10064 10060 10056 10051 10046 10042 10037 10032 10027 10022 10016 10011 10007 10003 9998 9993 9988 9983 9977 9972 9967 9962 9956 9950 9943 9938 9933 9928 9923 9918 9913 9907 9902 9897 9893 9888 9884 9880 9876 9872 9867 9862 9858 9854 9851 9848 9844 9840 9836 9833 9829 9825 9820 9815 9810 9806 9802 9797 9794 9790
10128 10126 10124 10121 10119 10116 10113 10111 10108 10105 10102 10099 10096 10093 10089 10085 10081 10077 10073 10070 10066 10061 10057 10052 10048 10044 10040 10035 10031 10027 10023 10018 10013 10007 10002 9997 9992 9988 9984 9979 9975 9970 9964 9958 9953 9948 9944 9938 9932 9925 9920 9916 9911 9906 9901 9896 9891 9886 9882 9878 9874 9870 9866 9862 9858 9854 9849 9845 9841 9838 9835 9831 9828 9824 9821 9817 9813 9809 9804 9799 9795 9790 9786 9782 9779